Location: Caserta
(41.0670°N, 14.3330°E)
Time: 18:11:00
(UTC+00:00)

ISS - Visible Passes

Search period start: 15 May 2021 00:00
Search period end: 25 May 2021 00:00
Orbit: 417 x 422 km, 51.6° (Epoch: 15 May)

Date Brightness Start Highest point End Pass type
(mag) Time Alt. Az. Time Alt. Az. Time Alt. Az.
15 May -0.6 00:06:53 10° NNW 00:09:02 16° N 00:11:10 10° NE visible
15 May -2.5 01:43:14 10° NW 01:46:29 43° NNE 01:49:44 10° ESE visible
15 May -3.4 20:02:52 10° WSW 20:06:12 67° NNW 20:09:34 10° NE visible
15 May -0.8 21:41:06 10° WNW 21:43:30 18° NNW 21:45:55 10° NNE visible
15 May -0.5 23:19:25 10° NNW 23:21:19 14° N 23:23:13 10° NE visible
16 May -1.8 00:55:54 10° NW 00:58:57 30° NNE 01:01:59 10° E visible
16 May -3.3 02:32:38 10° WNW 02:35:49 39° SW 02:38:58 10° SSE visible
16 May -3.9 19:15:24 10° SW 19:18:45 73° SE 19:22:06 10° ENE visible
16 May -1.1 20:53:09 10° WNW 20:55:51 22° NNW 20:58:34 10° NNE visible
16 May -0.4 22:31:48 10° NNW 22:33:36 14° N 22:35:25 10° NNE visible
17 May -1.3 00:08:35 10° NW 00:11:21 23° NNE 00:14:06 10° ENE visible
17 May -3.9 01:45:04 10° WNW 01:48:25 69° SW 01:51:46 10° SE visible
17 May -1.6 20:05:15 10° W 20:08:14 29° NNW 20:11:15 10° NE visible
17 May -0.5 21:44:00 10° NW 21:45:52 14° N 21:47:45 10° NNE visible
17 May -0.8 23:21:15 10° NNW 23:22:52 17° N 23:22:52 17° N visible
18 May -2.3 19:17:27 10° WSW 19:20:41 41° NNW 19:23:54 10° NE visible
18 May -0.6 20:56:04 10° NW 20:58:09 15° N 21:00:15 10° NNE visible
18 May -0.7 22:33:52 10° NNW 22:36:00 16° N 22:36:27 15° NNE visible
19 May -0.8 20:08:05 10° WNW 20:10:28 18° NNW 20:12:51 10° NNE visible
19 May -0.6 21:46:23 10° NNW 21:48:17 14° N 21:50:10 10° NE visible
19 May -0.6 23:22:52 10° NW 23:23:11 12° NW 23:23:11 12° NW visible
20 May -1.1 19:20:05 10° WNW 19:22:48 22° NNW 19:25:30 10° NNE visible
20 May -0.6 20:58:45 10° NNW 21:00:32 14° N 21:02:21 10° NNE visible
20 May -0.9 22:35:32 10° NW 22:37:05 19° N 22:37:05 19° N visible
21 May -0.7 20:10:56 10° NW 20:12:48 14° N 20:14:40 10° NNE visible
21 May -1.2 21:48:11 10° NNW 21:50:37 18° NNE 21:51:02 18° NNE visible
22 May -0.8 19:22:59 10° NW 19:25:04 15° N 19:27:09 10° NNE visible
22 May -0.9 21:00:46 10° NNW 21:02:55 16° N 21:05:00 10° NE visible
22 May -0.9 22:37:07 10° NW 22:37:56 16° NW 22:37:56 16° NW visible
23 May -0.8 20:13:17 10° NNW 20:15:10 14° N 20:17:04 10° NE visible
23 May -1.6 21:49:45 10° NW 21:51:56 26° N 21:51:56 26° N visible
24 May -0.8 19:25:38 10° NNW 19:27:25 14° N 19:29:13 10° NNE visible
24 May -1.7 21:02:24 10° NW 21:05:09 23° NNE 21:05:58 21° NE visible
24 May -0.6 22:38:52 10° WNW 22:38:54 10° WNW 22:38:54 10° WNW visible
